User: anonymous   Login
Location: Betra
(48.4113°N, 8.6634°E)
Time: 19:09:15
(UTC+00:00)
Language:

Cosmos 1825 - Orbit

View from above orbital plane
View from above orbital plane
View from above satellite
View from above satellite

Ground track
Ground track

The orbit data is extracted from the following two-line orbital elements,

1 17566U 87024A   24198.16537046  .00026603  00000-0  60362-3 0  9999
2 17566  82.4942 228.8482 0004563 136.9440 223.2165 15.42905348 47446
Epoch (UTC): 16 July 2024 03:58:08
Eccentricity: 0.0004563
inclination: 82.4942°
perigee height: 434 km
apogee height: 440 km
right ascension of ascending node: 228.8482°
argument of perigee: 136.9440°
revolutions per day: 15.42905348
mean anomaly at epoch: 223.2165°
orbit number at epoch: 4744

The dashed part of the orbit path shows where the satellite is in the earth's shadow,  

DLR